Location: Newark
(25.0000°N, 73.5000°E)
Time: 19:23:04
(UTC+00:00)

Altair - Pass Details

Date: 03 March 2021
Orbit: 1501 x 1683 km, 47.2° (Epoch: 10 April)

Event Time Altitude Azimuth Distance (km) Brightness Sun altitude
Rises 12:48:36 0° 234° (SW) 4,627 11.3 3.8°
Reaches altitude 10° 12:51:38 10° 237° (WSW) 3,643 10.9 3.1°
Maximum altitude 13:00:43 68° 319° (NW) 1,605 7.9 1.1°
Drops below altitude 10° 13:09:58 10° 42° (NE) 3,705 9.1 -1.0°
Sets 13:13:06 0° 45° (NE) 4,709 9.6 -1.7°
